{"data":{"norad_id":55660,"epoch":"2026-05-24T23:06:22.284288Z","epoch_age_seconds":71516,"freshness":"FRESH","line1":"1 55660U 23021AJ  26144.96275792  .00000050  00000+0  11965-4 0  9994","line2":"2 55660  69.9988 331.9855 0002578 271.6715  88.4149 14.98332942180714","mean_motion":14.98332942,"eccentricity":0.0002578,"inclination_deg":69.9988,"raan_deg":331.9855,"arg_perigee_deg":271.6715,"mean_anomaly_deg":88.4149,"bstar":1.1965e-5,"rev_number":18071,"period_min":96.106810418108,"perigee_km":570.25503568514,"apogee_km":573.83855044884,"semimajor_km":6950.183793067,"source":"CELESTRAK","updated_at":"2026-05-25T13:38:17.873680Z"}}